GFSSW_925_rhum_162.txt.gz
RH
79 79 80 78 79 78 77 75 72 69 66 61 57 52 49 44 37 27 15 9 8 9 11 13 6 6 5 5 6 6 9 12 10 10 10 8 9 10 12 18 22 25 29 30 31
83 83 84 82 80 77 76 74 73 69 65 62 58 48 45 43 46 25 10 6 8 9 17 10 9 6 6 6 6 7 10 10 8 9 8 7 8 11 14 18 23 26 24 26 26
86 86 87 87 84 80 79 77 76 72 70 64 60 54 40 39 38 15 10 10 10 12 15 10 9 8 8 7 8 8 10 8 8 9 7 7 7 7 12 15 19 24 25 23 23
87 88 91 91 88 84 82 81 79 77 72 68 63 54 35 42 34 16 20 16 15 13 15 10 10 12 11 10 7 9 8 7 7 8 8 7 6 9 19 20 18 19 21 22 22
89 92 93 94 94 91 89 85 81 79 76 68 62 48 49 30 21 18 24 15 15 14 12 13 13 13 15 12 10 12 10 8 6 8 8 8 8 11 21 21 20 21 21 22 24
97 96 96 96 98 94 91 89 86 81 74 69 64 53 39 29 22 24 22 21 17 15 14 14 15 14 16 16 15 13 11 10 9 8 8 10 9 14 19 21 21 22 22 22 22
100 99 99 99 99 99 93 92 88 77 69 61 64 67 50 31 19 22 22 23 19 17 16 14 14 16 16 18 12 12 16 15 14 11 10 10 12 14 17 21 21 20 20 23 25
98 100 100 100 99 98 98 99 89 72 67 60 59 72 46 21 22 24 21 26 20 18 17 16 15 16 17 15 16 18 16 21 14 12 10 11 17 14 21 21 21 20 22 24 25
94 92 95 93 92 94 96 87 74 67 62 56 67 56 41 29 26 21 20 19 18 16 16 16 15 18 16 19 20 17 21 16 14 10 10 11 15 22 20 20 20 20 22 24 27
80 83 86 85 83 79 78 73 54 68 58 70 48 37 28 20 21 21 19 18 17 17 18 18 18 22 20 20 24 16 15 14 14 11 11 12 14 21 21 20 20 19 21 24 27
75 58 74 72 71 67 65 62 64 69 61 32 27 28 20 19 19 16 15 18 16 17 22 17 22 23 19 17 15 16 16 16 12 10 12 13 13 11 21 21 22 21 23 24 26
73 78 71 63 63 60 71 47 32 45 47 28 27 21 18 20 30 17 12 15 15 21 15 19 24 19 15 18 21 21 23 23 17 13 14 15 16 13 14 22 21 21 23 25 26
78 74 71 67 62 74 65 43 40 39 36 17 12 14 17 15 20 21 16 18 17 17 18 19 16 17 22 23 24 24 26 25 24 19 18 18 18 17 13 16 20 20 21 22 26
84 80 70 66 68 54 51 45 44 48 50 18 21 19 18 19 25 17 17 14 18 19 17 18 15 17 20 23 25 32 21 18 20 25 32 19 30 19 14 15 22 22 23 24 25
91 81 68 67 94 40 39 42 49 53 47 19 23 26 25 24 25 22 20 17 22 20 20 24 20 23 27 23 18 20 19 22 26 28 30 25 27 20 15 16 23 24 24 25 30
86 82 78 85 74 56 52 47 52 72 52 22 26 27 37 30 26 24 25 21 19 21 18 19 17 18 20 21 21 19 24 25 25 28 43 28 26 25 20 19 22 24 25 29 33
88 87 79 74 58 62 64 53 71 55 12 18 29 27 29 32 26 24 27 27 25 30 28 21 20 17 17 22 21 22 29 44 39 37 42 20 20 20 17 28 26 28 29 34 38
83 89 83 86 75 75 76 69 70 17 18 13 20 28 32 25 26 19 16 21 19 18 18 21 24 14 14 22 26 21 22 39 44 41 32 17 22 15 33 29 24 25 34 38 39
77 92 90 77 83 87 78 88 28 21 12 16 21 29 27 21 18 19 16 15 10 10 22 19 16 12 16 16 14 18 24 16 26 25 33 24 17 12 25 35 39 40 43 45 40
86 84 73 82 83 82 84 59 33 15 19 17 22 22 25 23 21 16 17 11 12 11 12 17 24 14 14 14 16 18 16 27 25 43 42 27 22 30 40 43 44 68 58 54 45
87 80 64 84 83 80 92 51 30 16 19 22 21 20 16 16 16 17 17 10 13 13 14 16 21 21 16 18 18 15 17 19 20 28 41 44 41 44 43 42 47 61 73 58 62
72 85 84 77 94 69 78 41 32 21 21 25 23 16 13 10 11 12 12 10 12 13 18 13 21 29 19 14 13 14 17 18 33 33 35 46 59 32 44 44 40 54 93 75 64
72 82 85 78 87 71 44 41 28 27 21 18 18 15 14 15 18 16 16 13 13 17 24 23 25 36 26 19 16 19 17 17 21 26 37 54 52 36 43 41 38 62 74 83 98
81 99 89 89 52 42 43 39 35 29 26 20 18 16 20 18 18 18 19 15 18 19 42 28 31 35 51 33 22 25 19 16 21 55 59 55 59 66 95 79 52 68 71 79 91
70 75 60 93 86 52 36 32 33 39 33 25 25 26 23 30 24 24 19 18 20 30 26 30 38 32 31 27 26 26 24 21 22 23 30 30 27 28 68 96 99 94 78 80 80
95 65 42 35 51 60 54 42 33 31 35 37 33 24 25 28 25 25 24 26 29 31 32 35 55 43 46 34 31 34 27 25 22 19 19 21 22 21 52 64 78 79 79 82 85
52 40 38 45 59 70 67 41 32 31 28 26 27 28 28 27 36 38 40 41 44 46 44 43 46 53 63 38 42 66 50 34 29 26 29 34 35 34 52 59 66 72 76 87 92

GFSSW_925_rhum_165.txt.gz
RH
76 78 78 80 82 79 76 73 72 67 62 61 55 46 44 31 31 32 26 11 7 6 6 11 10 9 8 8 6 7 13 17 14 14 12 10 12 19 21 28 30 31 39 40 36
80 82 82 82 84 81 77 74 75 73 67 64 58 42 36 27 39 43 15 8 8 11 12 14 14 11 13 8 9 10 17 13 10 11 10 10 12 17 22 28 33 34 32 33 34
82 85 86 86 87 84 84 78 77 79 74 67 57 39 27 27 51 15 17 21 16 15 13 15 14 12 14 12 10 10 14 11 9 13 10 10 14 15 23 25 28 35 34 29 27
85 87 88 90 88 89 86 83 78 78 79 71 56 42 18 42 51 16 26 27 18 14 14 14 15 17 18 18 13 10 10 10 7 9 10 10 10 27 28 28 26 29 29 28 30
91 92 94 95 94 93 93 90 86 83 82 72 57 45 40 47 32 20 23 18 19 16 15 15 19 20 23 20 20 17 16 13 8 8 9 9 14 27 30 27 25 24 26 31 32
95 96 97 100 95 95 95 93 92 84 80 71 65 58 55 44 18 24 23 24 23 18 17 16 17 18 20 22 22 18 16 17 15 14 9 10 14 22 28 26 25 26 29 31 33
99 100 100 100 100 98 95 96 94 85 78 68 65 77 64 46 15 19 22 22 23 20 19 18 15 19 22 24 20 18 20 18 18 17 16 11 14 17 27 24 26 28 29 32 31
100 100 100 100 100 97 98 99 95 72 71 65 62 78 76 13 21 21 21 20 23 21 18 17 16 19 21 20 20 23 24 30 20 18 17 13 21 24 27 25 29 28 31 32 33
96 99 93 92 94 91 90 82 68 68 67 55 66 72 69 29 27 23 23 20 19 20 16 16 16 22 24 27 30 26 36 29 23 16 15 15 20 31 27 25 27 28 32 34 39
96 89 85 88 87 82 78 72 45 65 67 74 73 62 39 24 20 20 20 18 19 19 21 22 26 29 33 34 43 31 25 21 19 15 15 15 17 30 27 25 25 28 31 33 38
81 81 78 75 75 70 65 49 61 85 81 56 51 39 25 22 19 17 16 18 20 20 29 26 34 40 34 30 26 24 22 24 24 18 13 16 18 33 31 29 30 29 31 34 38
78 77 74 68 61 61 70 76 43 46 66 43 44 46 36 27 29 26 18 17 21 31 25 28 33 26 22 22 26 28 30 32 27 22 22 24 22 17 29 27 26 28 32 34 46
84 77 74 68 64 55 61 60 33 44 62 34 22 20 27 20 23 24 20 17 21 24 24 28 23 18 21 26 29 31 32 31 32 24 24 26 28 23 18 24 24 27 28 34 42
88 84 77 66 65 66 66 39 46 42 84 38 23 18 14 18 26 16 15 22 26 27 25 24 19 19 24 26 25 34 26 24 28 36 46 27 43 27 21 19 26 26 31 36 40
90 90 77 63 92 86 58 49 44 50 69 23 25 24 18 26 24 24 20 23 30 25 21 34 26 27 29 27 22 27 25 27 30 37 40 31 35 24 20 21 30 30 33 36 40
93 87 75 72 75 67 60 47 48 93 93 27 32 35 38 30 27 27 28 25 21 25 26 28 20 21 23 22 23 23 27 31 32 36 61 35 36 35 27 27 27 28 38 43 43
88 82 76 80 82 65 60 56 94 99 23 20 37 29 39 42 36 30 34 35 35 38 40 28 25 19 18 26 22 24 33 60 61 60 62 29 33 31 41 44 38 35 43 48 47
87 85 78 73 86 72 71 90 98 39 23 14 21 31 42 34 36 29 32 36 30 28 29 27 36 22 20 26 32 32 34 60 61 57 47 24 33 24 51 49 50 49 52 49 47
75 86 91 70 84 78 93 98 64 35 19 22 17 38 40 31 28 33 25 25 19 24 31 26 24 17 18 17 20 20 30 24 34 35 51 34 26 38 50 53 55 53 56 60 54
76 88 84 70 79 84 99 60 49 23 18 23 30 31 40 32 26 19 21 16 16 14 16 19 30 19 17 18 18 20 21 34 40 52 51 43 34 38 59 64 64 70 66 63 55
78 92 62 74 82 97 90 72 35 25 20 31 34 33 26 28 26 32 26 15 14 16 16 20 29 31 19 23 25 23 30 30 30 50 50 47 64 64 60 59 68 74 74 71 75
83 99 80 82 98 93 84 48 35 27 22 29 26 30 29 20 20 18 23 17 14 18 22 26 30 38 30 22 19 20 25 26 60 45 61 69 61 39 59 57 62 71 80 81 83
93 89 82 74 96 93 63 51 39 37 28 24 24 20 23 26 26 22 22 21 22 19 31 31 42 70 46 29 21 23 23 23 30 39 45 72 60 53 49 54 58 77 76 90 96
96 100 99 97 81 68 68 59 52 34 32 31 24 25 28 27 24 25 24 18 24 34 39 32 37 49 74 52 36 38 29 26 28 57 56 47 70 56 65 74 68 79 81 96 97
96 99 84 97 92 83 72 50 50 46 35 30 34 39 33 36 34 32 30 28 23 50 34 36 47 40 36 30 36 40 38 34 38 38 46 39 36 42 51 66 98 88 92 97 95
100 98 67 63 66 79 75 61 47 41 42 42 47 37 32 49 38 34 37 38 37 39 39 44 60 52 56 46 44 48 40 36 34 33 33 36 31 27 68 92 94 87 90 94 93
91 78 73 65 73 81 73 62 47 43 57 42 41 44 46 40 52 53 50 49 49 55 59 56 63 68 70 49 58 72 57 51 45 39 41 47 41 39 72 86 92 87 83 86 90

GFSSW_925_rhum_168.txt.gz
RH
74 78 80 81 81 80 78 76 71 72 71 66 59 44 28 25 15 29 36 15 8 11 14 12 10 11 11 9 7 9 16 17 13 14 14 12 18 23 27 35 38 39 47 46 51
78 81 82 84 84 83 82 82 79 76 76 74 65 37 24 25 37 45 23 14 19 16 14 16 16 16 15 11 10 12 18 14 11 11 11 12 15 23 26 34 40 47 43 45 48
83 84 85 86 88 86 86 85 85 80 81 77 68 39 17 31 54 17 19 27 22 15 14 16 18 16 15 15 12 12 15 12 10 10 10 11 19 22 27 29 36 46 45 41 40
84 87 89 90 91 93 89 89 87 86 83 78 72 49 17 43 25 18 22 23 22 18 16 16 19 22 20 20 18 17 14 14 11 10 9 10 22 28 30 28 34 38 35 32 32
88 90 93 95 96 95 93 95 91 92 84 77 72 56 33 53 33 19 24 22 24 23 18 20 20 23 26 23 22 19 17 16 16 12 9 17 24 30 33 33 33 30 32 36 38
97 94 96 98 99 96 89 94 97 84 81 76 73 64 60 36 14 20 24 24 22 23 20 20 20 19 23 24 25 19 18 18 16 17 13 24 31 28 30 30 30 31 36 37 38
100 99 99 100 100 100 100 93 92 69 67 73 73 75 77 37 10 14 24 24 23 25 21 19 19 20 23 27 22 21 24 24 21 18 18 12 26 23 30 30 31 33 36 38 38
100 100 97 100 97 94 94 82 77 69 66 66 61 77 82 15 27 30 20 21 21 21 23 18 16 18 22 23 23 23 26 31 23 19 19 13 22 22 31 30 35 35 38 39 44
89 85 85 88 89 86 77 66 50 51 55 62 55 75 75 24 29 26 24 24 20 19 22 16 17 22 24 31 36 31 34 32 28 20 20 18 21 30 32 30 33 34 36 38 47
72 73 76 78 70 62 58 43 33 42 63 85 82 65 44 27 21 21 20 19 19 21 22 22 28 31 35 40 47 36 31 27 25 18 15 15 22 36 33 30 30 33 36 40 48
63 62 69 70 63 58 49 33 51 65 75 61 62 53 39 27 25 18 17 17 21 23 31 26 36 43 36 34 31 31 33 29 25 23 22 17 18 36 35 32 34 35 38 43 49
86 65 59 59 56 47 44 68 55 53 71 50 56 53 48 44 48 37 24 20 23 33 27 32 38 30 29 29 32 33 34 37 31 24 23 27 29 22 36 30 29 30 36 44 56
83 75 79 73 53 39 53 50 36 36 69 52 36 36 32 30 50 43 23 20 21 24 26 37 29 22 25 25 28 32 35 35 32 30 26 29 33 25 26 30 28 29 30 45 53
90 82 74 60 50 74 70 60 51 53 56 37 29 24 18 21 24 25 20 25 27 28 29 32 24 21 23 28 27 33 26 27 31 38 44 29 52 30 24 27 29 29 42 51 51
90 85 81 61 78 83 60 55 46 42 50 20 25 24 22 21 24 25 21 24 28 31 27 36 26 25 28 29 23 30 27 30 30 36 39 37 41 29 22 22 25 32 44 50 51
90 90 80 62 68 65 61 47 35 83 76 36 33 33 30 27 28 28 28 25 25 31 30 32 24 22 25 23 24 24 30 35 37 41 63 38 38 44 38 49 43 49 49 50 54
88 86 78 83 81 70 65 48 71 95 34 27 40 35 44 45 41 35 37 38 39 41 44 32 29 25 21 24 24 25 39 60 60 66 58 34 35 39 59 60 51 58 55 54 52
75 86 80 75 81 75 69 84 79 39 31 18 18 30 51 45 44 40 39 45 36 33 38 41 34 23 22 27 30 34 40 62 67 65 52 25 33 34 60 59 59 56 56 51 52
88 82 91 70 73 86 83 99 60 48 26 25 24 29 46 39 45 37 42 41 32 34 37 31 28 18 20 22 27 29 36 34 44 41 54 40 34 56 58 62 61 57 56 61 60
79 87 88 65 69 88 96 66 59 38 20 25 32 33 49 41 31 44 27 20 18 20 21 23 30 22 20 19 18 22 22 31 44 46 51 44 38 42 68 70 66 72 67 69 65
79 91 58 68 82 96 96 79 46 31 30 31 36 37 36 27 29 30 27 18 14 17 17 20 31 31 18 23 27 26 30 31 36 58 57 56 62 58 64 64 68 67 75 68 74
91 99 73 73 99 91 88 65 40 36 29 31 28 34 38 31 30 24 29 20 19 18 24 26 35 39 27 22 21 22 27 30 59 41 65 75 54 44 60 62 64 65 73 76 83
98 92 98 80 90 94 69 62 49 45 38 30 32 25 24 26 26 25 21 22 17 28 31 27 41 66 38 30 33 28 26 28 35 48 52 72 71 57 59 62 62 75 73 84 93
98 100 93 98 84 77 76 68 69 44 38 38 29 27 29 28 26 29 26 23 29 31 43 40 41 48 56 44 42 43 35 32 35 68 56 60 60 63 59 59 64 74 79 91 94
99 99 93 99 99 89 81 69 60 62 43 38 36 37 39 40 32 36 29 27 30 47 33 34 42 44 43 39 38 40 37 38 48 49 57 48 51 46 54 59 59 86 95 93 90
99 99 94 98 77 98 96 94 71 57 46 42 43 38 39 49 38 34 42 43 36 48 40 43 48 45 45 44 48 56 50 48 46 45 45 48 45 38 45 80 89 89 96 95 93
94 88 94 86 81 91 86 82 69 54 56 58 51 45 54 55 45 48 49 53 50 56 60 58 64 74 73 55 64 74 64 54 48 43 48 59 49 45 63 88 86 92 91 90 89

GFSSW_925_rhum_174.txt.gz
RH
66 72 77 77 77 77 78 78 77 77 75 71 56 40 37 31 24 29 36 18 22 21 17 16 15 16 12 13 10 13 17 18 14 15 14 17 21 32 36 47 50 50 62 56 61
67 74 79 80 79 80 82 81 81 82 81 72 58 42 36 29 24 34 17 24 22 20 21 20 22 21 19 17 16 14 18 15 12 12 12 14 20 36 42 53 59 65 64 63 59
72 79 82 82 83 85 86 85 83 80 78 74 58 46 35 26 29 22 17 23 22 23 23 20 21 20 20 21 22 17 15 12 12 13 11 19 24 26 41 41 58 67 70 60 58
81 88 91 90 92 95 96 94 88 85 84 78 58 46 35 22 40 20 20 24 24 24 21 21 23 24 25 25 24 24 17 19 18 20 13 12 29 28 31 22 37 62 60 55 56
90 95 98 99 97 97 98 100 98 88 86 81 62 48 35 34 32 16 20 24 22 24 24 24 25 24 27 27 27 25 22 22 20 24 17 19 25 26 32 42 58 60 57 56 56
93 97 99 96 90 89 90 92 90 88 88 69 64 52 35 41 22 16 16 15 19 26 26 23 24 22 25 28 28 26 27 28 25 20 17 17 27 25 32 49 55 61 64 57 53
91 94 99 90 89 90 95 97 88 82 71 62 60 65 68 37 22 18 21 22 16 25 28 25 21 21 23 30 27 26 28 27 24 23 25 24 24 29 36 46 50 52 53 51 52
100 99 96 88 90 82 85 77 69 58 45 40 53 69 47 26 20 23 28 28 22 22 25 22 22 20 23 26 31 29 30 34 25 25 23 20 32 24 42 44 50 49 50 52 56
96 90 82 73 68 63 50 43 40 35 35 44 62 72 52 26 27 25 25 26 22 21 23 21 20 28 29 36 45 42 41 32 31 24 21 18 25 22 41 42 46 46 50 55 60
68 67 64 60 55 51 47 41 35 57 73 77 85 66 42 32 29 30 22 20 21 21 24 24 36 36 40 44 31 37 37 37 39 30 27 23 26 26 39 42 42 46 52 58 62
69 64 66 63 63 61 55 30 46 44 63 59 54 52 43 38 34 33 28 32 23 25 34 30 40 46 37 39 34 36 40 42 39 32 28 30 31 28 41 37 40 46 54 62 64
73 71 72 67 60 55 50 46 58 60 79 49 48 45 38 42 50 37 32 36 30 36 32 35 46 35 33 34 38 39 43 44 39 35 28 30 34 31 43 41 37 39 54 65 72
80 82 83 77 68 60 55 64 67 72 68 50 52 50 47 46 54 48 39 37 30 33 36 40 28 29 31 31 34 35 39 38 40 30 30 33 39 32 30 37 33 36 48 58 65
79 80 79 71 63 66 70 63 65 60 62 46 30 40 35 42 42 41 34 28 28 38 32 34 28 30 29 33 30 37 31 37 33 35 46 32 48 32 31 30 32 43 57 60 62
82 83 80 74 68 79 72 62 67 44 68 30 24 24 26 26 25 30 28 30 38 32 30 39 30 30 33 31 28 34 33 34 34 38 41 39 44 33 26 24 32 46 47 63 65
83 86 83 74 67 62 66 55 48 65 56 30 34 35 29 27 27 31 30 25 28 36 34 37 28 26 29 26 26 29 30 38 46 46 63 45 40 42 38 38 48 54 61 67 70
84 91 85 73 68 69 66 45 69 71 32 33 33 26 34 42 37 33 37 40 40 43 47 40 38 32 28 34 28 29 39 59 53 64 58 41 48 41 43 59 63 70 69 75 75
89 94 85 75 68 73 63 75 81 51 41 31 25 26 27 39 43 44 42 52 41 37 44 47 50 35 30 35 35 40 42 62 60 61 52 37 46 33 59 62 62 66 73 75 80
93 94 89 66 68 75 79 96 77 58 36 33 28 27 40 40 48 48 50 51 45 40 48 47 39 22 23 25 30 38 47 34 46 48 62 48 36 44 63 62 62 68 71 81 82
95 87 76 65 66 80 92 78 73 50 40 36 30 26 37 40 46 52 52 38 41 39 34 38 41 24 21 21 22 32 32 43 50 51 58 47 42 44 56 61 67 74 76 81 80
84 90 64 69 73 94 94 81 63 48 46 40 40 40 38 37 28 37 40 34 30 26 35 34 34 34 21 23 27 29 32 36 42 50 52 67 61 50 41 56 63 68 77 76 79
87 98 85 86 96 90 85 65 61 50 42 39 39 42 42 38 38 34 42 32 31 29 37 31 37 36 28 26 26 22 28 35 52 59 66 81 72 43 67 58 63 65 72 79 76
98 98 95 91 95 90 69 76 65 60 51 48 46 48 35 37 40 40 32 28 30 36 48 44 48 59 34 24 34 39 36 36 47 52 48 68 60 45 55 53 62 68 72 79 86
99 99 98 100 87 74 74 80 78 59 63 56 52 42 42 38 32 38 32 30 35 31 53 45 47 47 54 42 43 39 38 35 38 70 57 51 54 45 54 56 54 68 73 80 85
99 98 86 98 98 90 77 75 76 74 59 55 48 48 44 51 46 44 34 31 32 48 42 40 50 49 41 35 47 42 38 39 45 45 50 38 43 37 55 58 62 63 60 75 90
99 100 95 93 93 99 96 96 81 73 61 60 61 58 60 54 45 41 42 38 43 46 40 45 51 44 46 39 47 48 45 49 49 48 51 53 56 45 45 53 56 56 65 78 91
95 88 87 84 88 98 88 86 83 72 68 58 62 69 75 65 62 57 45 43 44 53 60 63 57 62 55 48 57 78 67 56 53 61 57 65 50 51 54 55 61 61 72 78 87